JBU110 KSAN-KTUS

Flight info

Callsign JBU110
Flight time 0h 56m
Altitude 37000
Route ZZOOO4 GBN DINGO6
Aircraft A20N/M-SDE2E3FGHIRWXY/LB1

Departure

Time 2026-04-24 08:29
Airport San Diego International Airport (KSAN)

Arrival

Time 2026-04-24 09:25
Airport Tucson International Airport (KTUS)
Time Latitude Longitude Altitude Speed Heading
2026-04-24 07:59 32.73348 -117.20062 19 ft 0 kts 263°
2026-04-24 08:19 32.73349 -117.20055 18 ft 2 kts 269°
2026-04-24 08:19 32.73346 -117.20037 18 ft 2 kts 290°
2026-04-24 08:19 32.73340 -117.20022 18 ft 2 kts 308°
2026-04-24 08:20 32.73329 -117.20009 18 ft 2 kts 326°
2026-04-24 08:20 32.73315 -117.20001 18 ft 2 kts 344°
2026-04-24 08:20 32.73301 -117.19998 18 ft 2 kts
2026-04-24 08:20 32.73289 -117.20001 18 ft 0 kts 16°
2026-04-24 08:21 32.73310 -117.19995 18 ft 6 kts 13°
2026-04-24 08:21 32.73352 -117.19984 18 ft 3 kts 13°
2026-04-24 08:21 32.73362 -117.19981 18 ft 0 kts 13°
2026-04-24 08:23 32.73363 -117.19981 19 ft 0 kts 13°
2026-04-24 08:23 32.73378 -117.19977 19 ft 3 kts 13°
2026-04-24 08:23 32.73414 -117.19966 19 ft 7 kts 14°
2026-04-24 08:24 32.73466 -117.19938 19 ft 9 kts 49°
2026-04-24 08:24 32.73467 -117.19853 18 ft 12 kts 107°
2026-04-24 08:24 32.73439 -117.19734 20 ft 16 kts 106°
2026-04-24 08:24 32.73407 -117.19600 20 ft 17 kts 106°
2026-04-24 08:25 32.73372 -117.19458 22 ft 18 kts 106°
2026-04-24 08:25 32.73334 -117.19303 22 ft 19 kts 106°
2026-04-24 08:25 32.73296 -117.19147 21 ft 19 kts 107°
2026-04-24 08:25 32.73257 -117.18986 20 ft 20 kts 105°
2026-04-24 08:26 32.73216 -117.18815 19 ft 22 kts 106°
2026-04-24 08:26 32.73172 -117.18635 19 ft 23 kts 106°
2026-04-24 08:26 32.73127 -117.18448 18 ft 24 kts 106°
2026-04-24 08:26 32.73081 -117.18258 19 ft 23 kts 106°
2026-04-24 08:27 32.73036 -117.18074 19 ft 22 kts 106°
2026-04-24 08:27 32.72995 -117.17902 20 ft 20 kts 105°
2026-04-24 08:27 32.72956 -117.17744 23 ft 19 kts 107°
2026-04-24 08:27 32.72971 -117.17599 24 ft 17 kts 56°
2026-04-24 08:28 32.73032 -117.17631 25 ft 14 kts 285°
2026-04-24 08:28 32.73106 -117.17931 22 ft 73 kts 286°
2026-04-24 08:28 32.73307 -117.18764 22 ft 136 kts 286°
2026-04-24 08:28 32.73622 -117.20040 132 ft 175 kts 287°
2026-04-24 08:29 32.73965 -117.21417 726 ft 177 kts 287°
2026-04-24 08:29 32.74318 -117.22834 1416 ft 181 kts 288°
2026-04-24 08:29 32.74671 -117.24250 2082 ft 182 kts 288°
2026-04-24 08:29 32.75044 -117.25723 2554 ft 194 kts 288°
2026-04-24 08:30 32.75462 -117.27326 3052 ft 206 kts 289°
2026-04-24 08:30 32.75884 -117.29055 3426 ft 227 kts 286°
2026-04-24 08:30 32.76299 -117.30945 3978 ft 241 kts 285°
2026-04-24 08:30 32.76545 -117.32928 4767 ft 246 kts 265°
2026-04-24 08:31 32.75956 -117.34825 5606 ft 249 kts 234°
2026-04-24 08:31 32.74637 -117.36128 6454 ft 252 kts 204°
2026-04-24 08:31 32.72919 -117.36491 7215 ft 258 kts 175°
2026-04-24 08:31 32.71195 -117.35782 7928 ft 268 kts 145°
2026-04-24 08:32 32.69920 -117.34188 8727 ft 271 kts 129°
2026-04-24 08:32 32.68744 -117.32410 9469 ft 276 kts 131°
2026-04-24 08:32 32.67474 -117.30603 10227 ft 281 kts 133°
2026-04-24 08:32 32.66195 -117.28835 10966 ft 284 kts 133°
2026-04-24 08:33 32.64890 -117.27047 11678 ft 289 kts 133°
2026-04-24 08:33 32.63641 -117.25176 12356 ft 295 kts 122°
2026-04-24 08:33 32.62873 -117.22901 12964 ft 305 kts 102°
2026-04-24 08:33 32.62575 -117.20349 13354 ft 322 kts 96°
2026-04-24 08:34 32.62383 -117.17638 13683 ft 340 kts 95°
2026-04-24 08:34 32.62175 -117.14786 13997 ft 357 kts 96°
2026-04-24 08:34 32.62037 -117.11795 14346 ft 373 kts 88°
2026-04-24 08:34 32.62382 -117.08740 14915 ft 380 kts 75°
2026-04-24 08:35 32.63218 -117.05760 15594 ft 382 kts 68°
2026-04-24 08:35 32.64220 -117.02815 16233 ft 386 kts 66°
2026-04-24 08:35 32.65231 -116.99882 16834 ft 391 kts 66°
2026-04-24 08:35 32.66118 -116.96830 17432 ft 397 kts 75°
2026-04-24 08:36 32.66623 -116.93610 18015 ft 402 kts 84°
2026-04-24 08:36 32.66786 -116.90280 18589 ft 406 kts 88°
2026-04-24 08:36 32.66846 -116.86903 19145 ft 410 kts 89°
2026-04-24 08:36 32.66893 -116.83521 19671 ft 415 kts 89°
2026-04-24 08:37 32.66954 -116.80109 20195 ft 419 kts 89°
2026-04-24 08:37 32.67030 -116.76648 20718 ft 423 kts 88°
2026-04-24 08:37 32.67033 -116.73106 21199 ft 428 kts 91°
2026-04-24 08:37 32.66978 -116.69572 21674 ft 432 kts 91°
2026-04-24 08:38 32.66915 -116.65998 22158 ft 437 kts 91°
2026-04-24 08:38 32.66851 -116.62386 22646 ft 440 kts 91°
2026-04-24 08:38 32.66793 -116.58753 23096 ft 445 kts 91°
2026-04-24 08:38 32.66736 -116.55101 23586 ft 449 kts 91°
2026-04-24 08:39 32.66676 -116.51378 24057 ft 453 kts 91°
2026-04-24 08:39 32.66613 -116.47659 24525 ft 456 kts 91°
2026-04-24 08:39 32.66580 -116.43901 24981 ft 460 kts 88°
2026-04-24 08:39 32.66716 -116.40110 25430 ft 463 kts 84°
2026-04-24 08:40 32.67020 -116.36327 25868 ft 466 kts 82°
2026-04-24 08:40 32.67377 -116.32496 26278 ft 469 kts 82°
2026-04-24 08:40 32.67743 -116.28651 26667 ft 473 kts 82°
2026-04-24 08:40 32.68113 -116.24738 27043 ft 476 kts 82°
2026-04-24 08:41 32.68474 -116.20834 27399 ft 480 kts 82°
2026-04-24 08:41 32.68835 -116.16896 27753 ft 483 kts 83°
2026-04-24 08:41 32.69196 -116.12933 28079 ft 487 kts 83°
2026-04-24 08:41 32.69557 -116.08923 28431 ft 490 kts 83°
2026-04-24 08:42 32.69912 -116.04935 28772 ft 492 kts 83°
2026-04-24 08:42 32.70268 -116.00912 29120 ft 495 kts 82°
2026-04-24 08:42 32.70634 -115.96833 29483 ft 497 kts 82°
2026-04-24 08:42 32.71003 -115.92776 29906 ft 496 kts 82°
2026-04-24 08:43 32.71379 -115.88704 30327 ft 496 kts 82°
2026-04-24 08:43 32.71750 -115.84676 30676 ft 497 kts 82°
2026-04-24 08:43 32.72128 -115.80590 30985 ft 499 kts 82°
2026-04-24 08:43 32.72506 -115.76487 31302 ft 501 kts 82°
2026-04-24 08:44 32.72880 -115.72416 31625 ft 503 kts 82°
2026-04-24 08:44 32.73258 -115.68288 31930 ft 504 kts 82°
2026-04-24 08:44 32.73638 -115.64158 32211 ft 506 kts 83°
2026-04-24 08:44 32.74017 -115.59995 32492 ft 508 kts 82°
2026-04-24 08:45 32.74393 -115.55818 32800 ft 509 kts 83°
2026-04-24 08:45 32.74750 -115.51688 33064 ft 511 kts 84°
2026-04-24 08:45 32.74941 -115.47478 33320 ft 513 kts 88°
2026-04-24 08:45 32.75043 -115.43252 33595 ft 514 kts 88°
2026-04-24 08:46 32.75124 -115.39009 33882 ft 515 kts 89°
2026-04-24 08:46 32.75208 -115.34747 34189 ft 515 kts 89°
2026-04-24 08:46 32.75297 -115.30557 34473 ft 515 kts 90°
2026-04-24 08:46 32.75391 -115.26305 34761 ft 515 kts 89°
2026-04-24 08:47 32.75482 -115.22076 35047 ft 515 kts 89°
2026-04-24 08:47 32.75578 -115.17838 35313 ft 514 kts 89°
2026-04-24 08:47 32.75673 -115.13600 35530 ft 515 kts 89°
2026-04-24 08:47 32.75765 -115.09352 35686 ft 517 kts 90°
2026-04-24 08:48 32.75859 -115.05069 35866 ft 519 kts 90°
2026-04-24 08:48 32.75948 -115.00814 36063 ft 519 kts 89°
2026-04-24 08:48 32.76035 -114.96547 36241 ft 520 kts 89°
2026-04-24 08:48 32.76125 -114.92280 36414 ft 521 kts 89°
2026-04-24 08:49 32.76213 -114.87951 36564 ft 523 kts 89°
2026-04-24 08:49 32.76301 -114.83633 36725 ft 524 kts 89°
2026-04-24 08:49 32.76389 -114.79325 36864 ft 526 kts 89°
2026-04-24 08:50 32.76561 -114.70678 36870 ft 527 kts 89°
2026-04-24 08:50 32.76727 -114.62022 36876 ft 527 kts 89°
2026-04-24 08:51 32.76853 -114.53344 36878 ft 527 kts 90°
2026-04-24 08:51 32.76953 -114.44672 36878 ft 527 kts 90°
2026-04-24 08:52 32.77063 -114.35957 36885 ft 527 kts 89°
2026-04-24 08:52 32.77181 -114.27228 36887 ft 527 kts 90°
2026-04-24 08:53 32.77294 -114.18592 36889 ft 528 kts 90°
2026-04-24 08:53 32.77398 -114.09885 36885 ft 528 kts 90°
2026-04-24 08:54 32.77496 -114.01192 36882 ft 528 kts 89°
2026-04-24 08:54 32.78116 -113.92492 36882 ft 529 kts 80°
2026-04-24 08:55 32.79371 -113.83934 36888 ft 528 kts 78°
2026-04-24 08:55 32.80666 -113.75350 36892 ft 528 kts 78°
2026-04-24 08:56 32.81887 -113.66812 36893 ft 529 kts 79°
2026-04-24 08:56 32.83086 -113.58170 36887 ft 528 kts 79°
2026-04-24 08:57 32.84279 -113.49609 36884 ft 528 kts 79°
2026-04-24 08:57 32.85476 -113.41043 36882 ft 528 kts 78°
2026-04-24 08:58 32.86681 -113.32423 36876 ft 528 kts 79°
2026-04-24 08:58 32.87875 -113.23845 36880 ft 528 kts 80°
2026-04-24 08:59 32.89062 -113.15268 36882 ft 528 kts 80°
2026-04-24 08:59 32.90248 -113.06665 36879 ft 527 kts 79°
2026-04-24 09:00 32.91414 -112.98133 36880 ft 527 kts 79°
2026-04-24 09:00 32.92587 -112.89534 36886 ft 528 kts 79°
2026-04-24 09:01 32.93763 -112.80931 36891 ft 527 kts 79°
2026-04-24 09:01 32.94871 -112.72329 36894 ft 526 kts 83°
2026-04-24 09:02 32.95173 -112.63703 36869 ft 527 kts 93°
2026-04-24 09:02 32.94922 -112.59338 36480 ft 525 kts 97°
2026-04-24 09:02 32.94525 -112.55048 35920 ft 524 kts 98°
2026-04-24 09:02 32.94094 -112.50706 35277 ft 524 kts 98°
2026-04-24 09:03 32.93672 -112.46401 34614 ft 525 kts 98°
2026-04-24 09:03 32.93258 -112.42094 33942 ft 526 kts 97°
2026-04-24 09:03 32.92856 -112.37775 33303 ft 527 kts 97°
2026-04-24 09:03 32.92461 -112.33461 32658 ft 528 kts 98°
2026-04-24 09:04 32.92071 -112.29137 32051 ft 527 kts 97°
2026-04-24 09:04 32.91671 -112.24788 31484 ft 525 kts 97°
2026-04-24 09:04 32.91277 -112.20507 30865 ft 523 kts 97°
2026-04-24 09:04 32.90880 -112.16193 30379 ft 518 kts 97°
2026-04-24 09:05 32.90496 -112.11993 29998 ft 510 kts 97°
2026-04-24 09:05 32.90115 -112.07839 29608 ft 503 kts 97°
2026-04-24 09:05 32.89740 -112.03732 29178 ft 496 kts 97°
2026-04-24 09:05 32.89364 -111.99689 28745 ft 490 kts 97°
2026-04-24 09:06 32.88986 -111.95705 28311 ft 485 kts 98°
2026-04-24 09:06 32.88204 -111.91813 27795 ft 477 kts 116°
2026-04-24 09:06 32.86449 -111.88556 27325 ft 459 kts 139°
2026-04-24 09:06 32.84037 -111.86241 26899 ft 441 kts 154°
2026-04-24 09:07 32.81418 -111.84370 26463 ft 435 kts 156°
2026-04-24 09:07 32.78835 -111.82545 26014 ft 433 kts 155°
2026-04-24 09:07 32.73752 -111.78655 25140 ft 428 kts 152°
2026-04-24 09:08 32.71282 -111.76656 24681 ft 425 kts 151°
2026-04-24 09:08 32.68838 -111.74649 24208 ft 423 kts 150°
2026-04-24 09:08 32.66413 -111.72642 23761 ft 421 kts 150°
2026-04-24 09:08 32.64038 -111.70673 23306 ft 419 kts 150°
2026-04-24 09:09 32.61621 -111.68673 22872 ft 416 kts 150°
2026-04-24 09:09 32.59262 -111.66724 22443 ft 413 kts 150°
2026-04-24 09:09 32.56897 -111.64748 22002 ft 412 kts 147°
2026-04-24 09:09 32.54728 -111.62515 21574 ft 414 kts 139°
2026-04-24 09:10 32.52812 -111.59903 21153 ft 415 kts 131°
2026-04-24 09:10 32.51091 -111.57156 20731 ft 413 kts 130°
2026-04-24 09:10 32.49292 -111.54562 20317 ft 407 kts 136°
2026-04-24 09:10 32.47299 -111.52232 19903 ft 401 kts 142°
2026-04-24 09:11 32.45186 -111.50043 19512 ft 397 kts 143°
2026-04-24 09:11 32.43104 -111.47934 19081 ft 395 kts 144°
2026-04-24 09:11 32.41024 -111.45830 18689 ft 392 kts 144°
2026-04-24 09:11 32.38947 -111.43726 18249 ft 390 kts 143°
2026-04-24 09:12 32.36899 -111.41650 17786 ft 388 kts 143°
2026-04-24 09:12 32.34837 -111.39554 17382 ft 385 kts 143°
2026-04-24 09:12 32.32816 -111.37497 16913 ft 382 kts 143°
2026-04-24 09:12 32.30817 -111.35460 16516 ft 378 kts 143°
2026-04-24 09:13 32.28814 -111.33421 16072 ft 375 kts 143°
2026-04-24 09:13 32.26847 -111.31421 15682 ft 371 kts 143°
2026-04-24 09:13 32.24891 -111.29433 15283 ft 369 kts 144°
2026-04-24 09:13 32.22963 -111.27473 14834 ft 367 kts 143°
2026-04-24 09:14 32.21024 -111.25505 14411 ft 363 kts 143°
2026-04-24 09:14 32.19114 -111.23564 14003 ft 361 kts 144°
2026-04-24 09:14 32.17228 -111.21648 13583 ft 358 kts 144°
2026-04-24 09:14 32.15328 -111.19718 13178 ft 355 kts 144°
2026-04-24 09:15 32.13459 -111.17828 12774 ft 353 kts 143°
2026-04-24 09:15 32.11589 -111.15936 12366 ft 350 kts 143°
2026-04-24 09:15 32.09730 -111.14059 11961 ft 348 kts 143°
2026-04-24 09:15 32.07904 -111.12218 11569 ft 345 kts 143°
2026-04-24 09:16 32.06085 -111.10389 11186 ft 342 kts 143°
2026-04-24 09:16 32.04257 -111.08550 10795 ft 339 kts 142°
2026-04-24 09:16 32.02472 -111.06747 10404 ft 337 kts 142°
2026-04-24 09:16 32.00724 -111.04981 10136 ft 329 kts 142°
2026-04-24 09:17 31.99003 -111.03238 10003 ft 317 kts 142°
2026-04-24 09:17 31.97372 -111.01592 9802 ft 308 kts 142°
2026-04-24 09:17 31.95738 -110.99946 9437 ft 306 kts 142°
2026-04-24 09:17 31.94132 -110.98332 9080 ft 303 kts 142°
2026-04-24 09:18 31.92570 -110.96661 8735 ft 301 kts 138°
2026-04-24 09:18 31.91078 -110.94925 8390 ft 298 kts 137°
2026-04-24 09:18 31.89616 -110.93204 8049 ft 295 kts 137°
2026-04-24 09:18 31.88239 -110.91417 7683 ft 295 kts 124°
2026-04-24 09:19 31.87618 -110.89132 7315 ft 296 kts 91°
2026-04-24 09:19 31.88098 -110.86834 6980 ft 293 kts 60°
2026-04-24 09:19 31.89409 -110.85031 6666 ft 288 kts 43°
2026-04-24 09:19 31.90884 -110.83433 6409 ft 282 kts 43°
2026-04-24 09:20 31.92282 -110.81879 6384 ft 267 kts 44°
2026-04-24 09:20 31.93573 -110.80402 6358 ft 253 kts 44°
2026-04-24 09:20 31.94800 -110.78979 6317 ft 239 kts 42°
2026-04-24 09:20 31.96200 -110.78033 6227 ft 226 kts
2026-04-24 09:21 31.97735 -110.78130 6076 ft 221 kts 336°
2026-04-24 09:21 31.99038 -110.79081 5794 ft 218 kts 317°
2026-04-24 09:21 32.00134 -110.80312 5498 ft 217 kts 312°
2026-04-24 09:21 32.01185 -110.81609 5195 ft 217 kts 312°
2026-04-24 09:22 32.02235 -110.82893 4894 ft 218 kts 313°
2026-04-24 09:22 32.03306 -110.84168 4589 ft 218 kts 313°
2026-04-24 09:22 32.04355 -110.85400 4372 ft 205 kts 313°
2026-04-24 09:22 32.05339 -110.86557 4076 ft 192 kts 313°
2026-04-24 09:23 32.06265 -110.87647 3786 ft 182 kts 314°
2026-04-24 09:23 32.07142 -110.88682 3521 ft 172 kts 314°
2026-04-24 09:23 32.07961 -110.89645 3287 ft 162 kts 314°
2026-04-24 09:23 32.08736 -110.90556 3062 ft 156 kts 314°
2026-04-24 09:24 32.09504 -110.91459 2867 ft 156 kts 313°
2026-04-24 09:24 32.10169 -110.92243 2703 ft 155 kts 314°
2026-04-24 09:24 32.10893 -110.93097 2630 ft 122 kts 315°
2026-04-24 09:24 32.11248 -110.93516 2620 ft 56 kts 315°
2026-04-24 09:25 32.11430 -110.93677 2615 ft 19 kts
2026-04-24 09:25 32.11488 -110.93639 2616 ft 0 kts 45°
2026-04-24 09:25 32.11489 -110.93639 2616 ft 0 kts 45°
2026-04-24 09:26 32.11507 -110.93619 2616 ft 6 kts 31°
2026-04-24 09:26 32.11567 -110.93645 2614 ft 13 kts 316°
2026-04-24 09:26 32.11651 -110.93742 2611 ft 20 kts 315°
2026-04-24 09:26 32.11756 -110.93867 2607 ft 22 kts 315°
2026-04-24 09:27 32.11866 -110.93996 2605 ft 22 kts 315°
2026-04-24 09:27 32.11981 -110.94119 2600 ft 19 kts 345°
2026-04-24 09:27 32.12066 -110.94080 2599 ft 12 kts
2026-04-24 09:27 32.12104 -110.94076 2598 ft 0 kts 33°
2026-04-24 09:28 32.12104 -110.94065 2598 ft 1 kts 122°
2026-04-24 09:28 32.12080 -110.94053 2599 ft 10 kts 164°
2026-04-24 09:28 32.11979 -110.93990 2603 ft 17 kts 136°
2026-04-24 09:28 32.11890 -110.93886 2604 ft 18 kts 135°
2026-04-24 09:29 32.11868 -110.93807 2605 ft 3 kts 66°
2026-04-24 09:29 32.11877 -110.93786 2606 ft 2 kts 63°
2026-04-24 09:29 32.11885 -110.93769 2606 ft 0 kts 62°